Date String (YYYY-MM-DD hh:mm:ss) UTC,Instrument flags,Ambient pressure (hPa),Sample flow (lpm),Bypass flow (lpm),Sample temperature (°C),Ambient temperature (°C),ASC tube jacket temperature (°C),LED temperature (°C),Box temperature (°C),Sample RH (%),Span deviation,Mass concentration (μg/m³),Mass concentration (μg/m³),Mass concentration (μg/m³)
DateTimeUTC,F1_M11,P_M11,Q1_M11,Q2_M11,T1_M11,T2_M11,T3_M11,T4_M11,T5_M11,U1_M11,ZSPAN_M11,X0_M11,X2_M11,X1_M11
2021-08-28 16:00:00,,0827.2,5.00,0.00,29.4,27.0,00.0,38.6,31.0,23.5,0002.8,0028.73,0015.24,0013.99
2021-08-28 16:01:00,,0827.2,4.99,0.00,29.4,27.4,00.0,38.6,31.1,23.3,0002.8,0027.73,0015.32,0014.03
2021-08-28 16:02:00,,0827.2,5.01,0.00,29.4,27.7,00.0,38.6,31.2,22.8,0003.2,0028.28,0015.50,0014.18
2021-08-28 16:03:00,,0827.2,4.99,0.00,29.5,28.0,00.0,38.6,31.3,22.8,0003.3,0029.18,0015.66,0014.34
2021-08-28 16:04:00,,0827.2,5.00,0.00,29.5,28.2,00.0,38.6,31.3,22.7,0003.3,0030.10,0015.91,0014.54
2021-08-28 16:05:00,,0827.2,5.00,0.00,29.5,28.4,00.0,38.6,31.4,22.2,0003.2,0030.75,0016.13,0014.78
2021-08-28 16:06:00,,0827.2,5.00,0.00,29.6,28.5,00.0,38.6,31.4,22.6,0003.2,0031.11,0016.36,0015.01
2021-08-28 16:07:00,,0827.2,5.00,0.00,29.6,28.7,00.0,38.6,31.5,22.8,0003.0,0031.23,0016.60,0015.18
2021-08-28 16:08:00,,0827.2,4.99,0.00,29.7,28.8,00.0,38.6,31.6,23.0,0002.5,0031.25,0016.74,0015.28
2021-08-28 16:09:00,,0827.2,5.00,0.00,29.7,28.5,00.0,38.7,31.5,22.1,0002.4,0030.68,0016.93,0015.44
2021-08-28 16:10:00,,0827.2,4.99,0.00,29.6,26.8,00.0,38.6,31.1,22.3,0003.0,0030.68,0017.16,0015.64
2021-08-28 16:11:00,,0827.2,5.01,0.00,29.5,26.1,00.0,38.6,30.9,22.2,0002.9,0030.64,0017.41,0015.92
2021-08-28 16:12:00,,0827.2,4.99,0.00,29.4,26.5,00.0,38.6,31.0,21.8,0002.8,0032.16,0017.76,0016.25
2021-08-28 16:13:00,,0827.2,5.01,0.00,29.4,26.9,00.0,38.6,31.0,21.4,0002.6,0033.10,0018.12,0016.61
2021-08-28 16:14:00,,0827.2,4.99,0.00,29.4,27.3,00.0,38.5,31.1,21.6,0002.7,0033.31,0018.48,0016.96
2021-08-28 16:15:00,,0827.2,5.01,0.00,29.4,27.7,00.0,38.5,31.2,21.1,0002.4,0033.71,0018.86,0017.32
2021-08-28 16:16:00,,0827.2,5.00,0.00,29.5,27.9,00.0,38.5,31.2,21.9,0002.2,0033.88,0019.29,0017.69
2021-08-28 16:17:00,,0827.2,4.99,0.00,29.5,28.2,00.0,38.5,31.3,21.5,0002.3,0034.61,0019.66,0018.05
2021-08-28 16:18:00,,0827.2,5.00,0.00,29.5,28.4,00.0,38.5,31.4,20.6,0002.2,0035.55,0020.08,0018.46
2021-08-28 16:19:00,,0827.2,5.00,0.00,29.6,28.5,00.0,38.6,31.4,20.8,0002.5,0036.61,0020.54,0018.93
2021-08-28 16:20:00,,0827.3,5.00,0.00,29.6,28.7,00.0,38.6,31.5,20.2,0002.4,0037.49,0021.03,0019.41
2021-08-28 16:21:00,,0827.3,5.01,0.00,29.6,28.1,00.0,38.6,31.3,19.9,0002.1,0038.42,0021.49,0019.89
2021-08-28 16:22:00,,0827.3,4.99,0.00,29.5,26.4,00.0,38.6,30.9,19.7,0002.3,0038.30,0021.93,0020.33
2021-08-28 16:23:00,,0827.2,5.01,0.00,29.4,26.1,00.0,38.6,30.8,20.0,0002.6,0037.58,0022.33,0020.72
2021-08-28 16:24:00,,0827.2,5.00,0.00,29.4,26.6,00.0,38.5,30.9,19.5,0002.5,0036.83,0022.74,0021.14
2021-08-28 16:25:00,,0827.2,5.00,0.00,29.3,27.0,00.0,38.5,31.0,19.9,0002.5,0036.59,0023.07,0021.47
2021-08-28 16:26:00,,0827.2,5.01,0.00,29.3,27.4,00.0,38.5,31.0,19.8,0002.8,0036.55,0023.37,0021.79
2021-08-28 16:27:00,,0827.2,5.00,0.00,29.3,27.7,00.0,38.5,31.1,19.2,0003.1,0037.34,0023.66,0022.11
2021-08-28 16:28:00,,0827.2,5.00,0.00,29.4,28.0,00.0,38.5,31.2,19.5,0003.1,0037.75,0024.04,0022.49
2021-08-28 16:29:00,,0827.2,5.00,0.00,29.4,28.2,00.0,38.5,31.2,19.1,0003.2,0038.09,0024.38,0022.83
2021-08-28 16:30:00,,0827.3,5.00,0.00,29.5,28.4,00.0,38.5,31.3,19.4,0003.1,0038.64,0024.68,0023.11
2021-08-28 16:31:00,,0827.3,4.99,0.00,29.5,28.5,00.0,38.5,31.4,18.7,0003.2,0038.27,0024.88,0023.35
2021-08-28 16:32:00,,0827.3,4.99,0.00,29.6,28.7,00.0,38.5,31.4,18.5,0003.2,0037.18,0025.10,0023.53
2021-08-28 16:33:00,,0827.3,5.00,0.00,29.6,28.7,00.0,38.5,31.5,18.2,0002.9,0037.40,0025.31,0023.72
2021-08-28 16:34:00,,0827.3,5.01,0.00,29.6,27.7,00.0,38.6,31.3,17.7,0002.8,0037.66,0025.51,0024.00
2021-08-28 16:35:00,,0827.2,4.99,0.00,29.5,26.2,00.0,38.5,30.8,17.7,0003.0,0037.82,0025.72,0024.24
2021-08-28 16:36:00,,0827.2,4.99,0.00,29.3,26.2,00.0,38.5,30.8,17.7,0003.0,0037.58,0025.95,0024.50
2021-08-28 16:37:00,,0827.2,5.00,0.00,29.3,26.6,00.0,38.5,30.9,18.8,0003.0,0037.25,0026.09,0024.64
2021-08-28 16:38:00,,0827.3,5.00,0.00,29.3,27.0,00.0,38.5,31.0,19.3,0002.7,0037.02,0026.22,0024.73
2021-08-28 16:39:00,,0827.3,4.99,0.00,29.3,27.4,00.0,38.4,31.1,18.9,0002.6,0036.64,0026.27,0024.80
2021-08-28 16:40:00,,0827.3,5.01,0.00,29.4,27.8,00.0,38.4,31.1,18.7,0002.5,0036.53,0026.40,0024.90
2021-08-28 16:41:00,,0827.2,5.00,0.00,29.4,28.0,00.0,38.4,31.2,18.6,0002.5,0036.07,0026.47,0024.97
2021-08-28 16:42:00,,0827.3,4.99,0.00,29.4,28.2,00.0,38.5,31.3,19.5,0002.2,0036.30,0026.51,0024.99
2021-08-28 16:43:00,,0827.2,5.00,0.00,29.5,28.4,00.0,38.5,31.4,19.8,0002.0,0036.44,0026.45,0024.93
2021-08-28 16:44:00,,0827.3,4.99,0.00,29.5,28.6,00.0,38.5,31.4,19.9,0002.0,0036.44,0026.43,0024.94
2021-08-28 16:45:00,,0827.2,5.00,0.00,29.6,28.7,00.0,38.5,31.5,20.6,0002.0,0036.25,0026.33,0024.81
2021-08-28 16:46:00,,0827.3,5.02,0.00,29.6,28.2,00.0,38.5,31.3,20.1,0001.9,0035.77,0026.07,0024.57
2021-08-28 16:47:00,,0827.2,4.99,0.00,29.5,26.4,00.0,38.5,30.9,20.1,0002.0,0035.83,0025.88,0024.36
2021-08-28 16:48:00,,0827.2,4.99,0.00,29.3,26.1,00.0,38.5,30.7,20.6,0002.1,0036.07,0025.76,0024.22
2021-08-28 16:49:00,,0827.2,5.00,0.00,29.3,26.5,00.0,38.5,30.9,20.5,0002.4,0036.67,0025.63,0024.09
2021-08-28 16:50:00,,0827.2,5.00,0.00,29.3,27.0,00.0,38.4,30.9,20.1,0002.5,0036.44,0025.50,0023.97
2021-08-28 16:51:00,,0827.2,5.00,0.00,29.3,27.4,00.0,38.4,31.0,19.3,0002.7,0036.79,0025.37,0023.86
2021-08-28 16:52:00,,0827.2,5.00,0.00,29.3,27.7,00.0,38.4,31.1,20.2,0002.8,0037.29,0025.33,0023.80
2021-08-28 16:53:00,,0827.2,4.99,0.00,29.4,28.0,00.0,38.4,31.2,20.3,0003.0,0037.86,0025.26,0023.73
2021-08-28 16:54:00,,0827.2,5.00,0.00,29.4,28.2,00.0,38.4,31.3,20.2,0003.0,0037.82,0025.27,0023.73
2021-08-28 16:55:00,,0827.2,5.00,0.00,29.5,28.4,00.0,38.5,31.4,20.2,0003.2,0038.26,0025.25,0023.71
2021-08-28 16:56:00,,0827.2,4.99,0.00,29.5,28.5,00.0,38.5,31.4,20.1,0003.3,0039.23,0025.33,0023.78
2021-08-28 16:57:00,,0827.3,5.01,0.00,29.5,27.5,00.0,38.5,31.1,19.9,0003.0,0039.85,0025.54,0023.94
2021-08-28 16:58:00,,0827.3,5.00,0.00,29.4,26.0,00.0,38.5,30.7,20.0,0002.9,0040.44,0025.70,0024.08
2021-08-28 16:59:00,,0827.2,5.00,0.00,29.3,26.1,00.0,38.4,30.7,20.9,0002.9,0041.67,0025.86,0024.22
